Location: Dvur Kralove nad Labem
(50.4330°N, 15.8170°E)
Time: 15:04:01
(UTC+02:00)

ISS - Pass Details

Date: 18 May 2018
Orbit: 402 x 407 km, 51.6° (Epoch: 24 May)

Event Time Altitude Azimuth Distance (km) Brightness Sun altitude
Exits shadow 03:21:04 - 282° (WNW) 2,143 -0.4 -12.8°
Reaches altitude 10° 03:22:44 10° 283° (WNW) 1,458 -1.2 -12.7°
Maximum altitude 03:26:00 82° 9° (N) 412 -3.8 -12.4°
Drops below altitude 10° 03:29:16 10° 100° (E) 1,456 -0.6 -12.1°
Sets 03:31:21 0° 101° (E) 2,314 0.4 -11.9°
